When you browse on this site, cookies collect data to enhance your experience and personalize the content and advertising you see.
Visit our Privacy Policy to learn more. By continuing to use the site, you agree to this use of cookies and data.
  • En España
  • Lista de países
  • Para 7 días
  • Temperatura del agua
  • Mapa Satelital
  • El tiempo en el mapa
  • Informadores
  • user-avatar
    Iniciar sesión

    Tiempo cada hora Manzini

    Hoy, 18 Febrero, Lunes

    Tiempo Temperatura Precipitaciones Viento Presión Humedad
    00:00 +19°C° 0 mm 1 mps 707 mmHg 90%
    01:00 +19°C° 0 mm 1 mps 707 mmHg 90%
    02:00 +17°C° 0 mm 2 mps 707 mmHg 89%
    03:00 +17°C° 0 mm 2 mps 706 mmHg 88%
    04:00 +16°C° 0 mm 2 mps 706 mmHg 87%
    05:00 +16°C° 0 mm 2 mps 706 mmHg 86%
    06:00 +18°C° 0 mm 2 mps 706 mmHg 79%
    07:00 +20°C° 0 mm 2 mps 707 mmHg 72%
    08:00 +21°C° 0 mm 2 mps 707 mmHg 64%
    09:00 +24°C° 0 mm 2 mps 707 mmHg 60%
    10:00 +26°C° 0 mm 3 mps 707 mmHg 56%
    11:00 +27°C° 0 mm 4 mps 707 mmHg 52%
    12:00 +28°C° 0 mm 3 mps 707 mmHg 52%
    13:00 +28°C° 0 mm 3 mps 707 mmHg 53%
    14:00 +28°C° 0 mm 3 mps 706 mmHg 53%
    15:00 +27°C° 0 mm 3 mps 706 mmHg 57%
    16:00 +27°C° 0 mm 3 mps 706 mmHg 61%
    17:00 +26°C° 0 mm 3 mps 706 mmHg 64%
    18:00 +24°C° 0.1 mm 2 mps 706 mmHg 72%
    19:00 +21°C° 0.1 mm 2 mps 706 mmHg 81%
    20:00 +21°C° 0.1 mm 1 mps 707 mmHg 89%
    21:00 +20°C° 0 mm 1 mps 707 mmHg 90%
    22:00 +19°C° 0 mm 1 mps 707 mmHg 91%
    23:00 +18°C° 0 mm 1 mps 707 mmHg 93%

    Mañana, 19 Febrero, Martes

    Tiempo Temperatura Precipitaciones Viento Presión Humedad
    00:00 +18°C° 0 mm 1 mps 707 mmHg 93%
    01:00 +16°C° 0 mm 1 mps 707 mmHg 94%
    02:00 +16°C° 0 mm 1 mps 706 mmHg 94%
    03:00 +15°C° 0 mm 1 mps 706 mmHg 93%
    04:00 +15°C° 0 mm 1 mps 706 mmHg 92%
    05:00 +15°C° 0 mm 1 mps 706 mmHg 92%
    06:00 +18°C° 0 mm 1 mps 707 mmHg 83%
    07:00 +20°C° 0 mm 1 mps 707 mmHg 74%
    08:00 +22°C° 0 mm 1 mps 708 mmHg 65%
    09:00 +24°C° 0 mm 1 mps 708 mmHg 57%
    10:00 +26°C° 0 mm 1 mps 708 mmHg 48%
    11:00 +27°C° 0 mm 2 mps 708 mmHg 40%
    12:00 +28°C° 0 mm 2 mps 707 mmHg 39%
    13:00 +29°C° 0 mm 2 mps 707 mmHg 38%
    14:00 +29°C° 0 mm 2 mps 706 mmHg 38%
    15:00 +29°C° 0 mm 2 mps 706 mmHg 42%
    16:00 +28°C° 0 mm 2 mps 705 mmHg 46%
    17:00 +27°C° 0 mm 2 mps 705 mmHg 49%
    18:00 +25°C° 0 mm 2 mps 705 mmHg 61%
    19:00 +23°C° 0 mm 1 mps 706 mmHg 73%
    20:00 +20°C° 0 mm 1 mps 706 mmHg 86%
    21:00 +20°C° 0 mm 1 mps 706 mmHg 88%
    22:00 +20°C° 0 mm 1 mps 707 mmHg 90%
    23:00 +18°C° 0 mm 0 mps 707 mmHg 93%

    Pasado mañana, 20 Febrero, Miércoles

    Tiempo Temperatura Precipitaciones Viento Presión Humedad
    00:00 +18°C° 0 mm 0 mps 707 mmHg 93%
    01:00 +18°C° 0 mm 0 mps 706 mmHg 94%
    02:00 +20°C° 0 mm 1 mps 706 mmHg 95%
    03:00 +19°C° 0 mm 1 mps 706 mmHg 95%
    04:00 +19°C° 0 mm 1 mps 705 mmHg 95%
    05:00 +18°C° 0 mm 1 mps 705 mmHg 96%
    06:00 +20°C° 0 mm 1 mps 706 mmHg 88%
    07:00 +22°C° 0 mm 1 mps 706 mmHg 81%
    08:00 +23°C° 0 mm 1 mps 706 mmHg 74%
    09:00 +26°C° 0 mm 1 mps 706 mmHg 64%
    10:00 +29°C° 0 mm 1 mps 706 mmHg 54%
    11:00 +32°C° 0 mm 2 mps 706 mmHg 45%
    12:00 +34°C° 0 mm 2 mps 706 mmHg 42%
    13:00 +35°C° 0 mm 2 mps 705 mmHg 40%
    14:00 +37°C° 0 mm 3 mps 704 mmHg 38%
    15:00 +36°C° 0 mm 3 mps 704 mmHg 44%
    16:00 +35°C° 0 mm 2 mps 703 mmHg 49%
    17:00 +32°C° 0 mm 2 mps 703 mmHg 55%
    18:00 +30°C° 0 mm 2 mps 703 mmHg 63%
    19:00 +28°C° 0 mm 1 mps 704 mmHg 71%
    20:00 +25°C° 0 mm 1 mps 704 mmHg 80%
    21:00 +24°C° 0 mm 1 mps 704 mmHg 82%
    22:00 +24°C° 0 mm 1 mps 705 mmHg 84%
    23:00 +23°C° 0 mm 1 mps 705 mmHg 86%

    21 Febrero, Jueves

    Tiempo Temperatura Precipitaciones Viento Presión Humedad
    00:00 +23°C° 0 mm 1 mps 705 mmHg 88%
    01:00 +22°C° 0 mm 1 mps 705 mmHg 90%
    02:00 +22°C° 0 mm 1 mps 705 mmHg 92%
    03:00 +22°C° 0 mm 1 mps 706 mmHg 94%
    04:00 +21°C° 0 mm 1 mps 706 mmHg 96%
    05:00 +21°C° 0 mm 1 mps 707 mmHg 98%
    06:00 +22°C° 0 mm 1 mps 708 mmHg 94%
    07:00 +23°C° 0 mm 1 mps 708 mmHg 91%
    08:00 +24°C° 0 mm 1 mps 709 mmHg 87%
    09:00 +25°C° 0 mm 1 mps 709 mmHg 82%
    10:00 +26°C° 0 mm 2 mps 709 mmHg 77%
    11:00 +27°C° 0 mm 2 mps 709 mmHg 72%
    12:00 +27°C° 0 mm 2 mps 709 mmHg 70%
    13:00 +28°C° 0 mm 2 mps 708 mmHg 68%
    14:00 +28°C° 0 mm 2 mps 708 mmHg 67%
    15:00 +28°C° 0.1 mm 2 mps 708 mmHg 70%
    16:00 +27°C° 0.1 mm 2 mps 708 mmHg 73%
    17:00 +27°C° 0.1 mm 2 mps 707 mmHg 77%
    18:00 +26°C° 0.2 mm 2 mps 708 mmHg 83%
    19:00 +25°C° 0.2 mm 1 mps 708 mmHg 90%
    20:00 +23°C° 0.2 mm 1 mps 709 mmHg 96%
    21:00 +23°C° 0.3 mm 1 mps 709 mmHg 97%
    22:00 +23°C° 0.3 mm 1 mps 709 mmHg 97%
    23:00 +23°C° 0.3 mm 1 mps 709 mmHg 98%

    22 Febrero, Viernes

    Tiempo Temperatura Precipitaciones Viento Presión Humedad
    00:00 +23°C° 0.2 mm 1 mps 709 mmHg 98%
    01:00 +23°C° 0.2 mm 1 mps 709 mmHg 98%
    02:00 +22°C° 0.2 mm 1 mps 708 mmHg 98%
    03:00 +22°C° 0.1 mm 1 mps 708 mmHg 98%
    04:00 +22°C° 0.1 mm 1 mps 708 mmHg 98%
    05:00 +22°C° 0.1 mm 1 mps 708 mmHg 98%
    06:00 +22°C° 0 mm 1 mps 708 mmHg 97%
    07:00 +23°C° 0 mm 1 mps 708 mmHg 95%
    08:00 +23°C° 0 mm 1 mps 708 mmHg 93%
    09:00 +24°C° 0.1 mm 1 mps 708 mmHg 87%
    10:00 +26°C° 0.1 mm 1 mps 708 mmHg 80%
    11:00 +27°C° 0.1 mm 1 mps 708 mmHg 73%
    12:00 +28°C° 0.1 mm 2 mps 707 mmHg 70%
    13:00 +29°C° 0.1 mm 2 mps 706 mmHg 66%
    14:00 +30°C° 0.1 mm 3 mps 705 mmHg 62%
    15:00 +29°C° 1.4 mm 3 mps 705 mmHg 68%
    16:00 +28°C° 1.4 mm 2 mps 704 mmHg 73%
    17:00 +27°C° 1.4 mm 2 mps 704 mmHg 79%
    18:00 +26°C° 13 mm 2 mps 704 mmHg 84%
    19:00 +24°C° 13 mm 1 mps 705 mmHg 89%
    20:00 +23°C° 13 mm 1 mps 706 mmHg 95%
    21:00 +23°C° 0.5 mm 1 mps 706 mmHg 95%
    22:00 +20°C° 0.5 mm 0 mps 705 mmHg 96%
    23:00 +20°C° 0.5 mm 0 mps 705 mmHg 97%

    23 Febrero, Sábado

    Tiempo Temperatura Precipitaciones Viento Presión Humedad
    00:00 +20°C° 0.1 mm 0 mps 705 mmHg 96%
    01:00 +21°C° 0.1 mm 1 mps 705 mmHg 96%
    02:00 +21°C° 0.1 mm 1 mps 704 mmHg 95%
    03:00 +21°C° 0 mm 1 mps 704 mmHg 96%
    04:00 +21°C° 0 mm 1 mps 704 mmHg 96%
    05:00 +21°C° 0 mm 1 mps 704 mmHg 97%
    06:00 +21°C° 0 mm 1 mps 704 mmHg 95%
    07:00 +20°C° 0 mm 0 mps 705 mmHg 92%
    08:00 +21°C° 0 mm 0 mps 705 mmHg 90%
    09:00 +25°C° 0 mm 1 mps 705 mmHg 82%
    10:00 +27°C° 0 mm 1 mps 705 mmHg 73%
    11:00 +29°C° 0 mm 1 mps 705 mmHg 65%
    12:00 +29°C° 0 mm 2 mps 705 mmHg 64%
    13:00 +29°C° 0 mm 2 mps 704 mmHg 62%
    14:00 +30°C° 0 mm 3 mps 704 mmHg 61%
    15:00 +29°C° 0 mm 3 mps 703 mmHg 65%
    16:00 +28°C° 0 mm 3 mps 703 mmHg 68%
    17:00 +28°C° 0 mm 3 mps 703 mmHg 72%
    18:00 +26°C° 0.2 mm 2 mps 703 mmHg 79%
    19:00 +25°C° 0.2 mm 2 mps 704 mmHg 87%
    20:00 +23°C° 0.2 mm 1 mps 704 mmHg 94%
    21:00 +23°C° 0.2 mm 1 mps 704 mmHg 95%
    22:00 +22°C° 0.2 mm 1 mps 705 mmHg 95%
    23:00 +22°C° 0.2 mm 1 mps 705 mmHg 96%
    Mostrar más